Dewpoint
30 30 31 31 31 31 31 31 31 31 30 29 27 26 26 26 25 25 25 25 25 25 25 25 25 25 25 25 24 23 22 22 22 23 24 23 21 21 21 21 20 20 20 20 20 20 21 21 21 22 23 24 23 22 21 21 21 21 21 21 21 20 20 20 21 21 21 21 21
29 30 30 32 32 31 30 30 30 30 29 29 27 26 26 26 26 25 25 25 25 25 25 25 25 25 24 24 24 23 22 21 21 21 22 21 20 19 19 20 19 19 18 18 19 20 20 20 21 22 22 23 22 21 21 20 20 21 21 20 20 20 20 21 21 21 21 21 21
28 28 28 28 28 28 27 27 27 27 27 28 27 26 26 26 26 26 25 25 25 24 24 24 24 25 24 23 23 22 22 22 21 21 21 21 20 20 20 19 19 19 19 19 18 19 20 20 21 22 22 22 21 21 21 21 21 21 20 19 19 20 20 20 20 20 21 21 21
25 25 25 26 25 25 25 25 25 25 26 27 27 26 26 26 26 26 26 25 24 24 24 24 22 22 23 23 21 21 22 24 24 22 21 20 20 20 19 18 19 18 18 17 18 19 19 20 21 21 21 21 20 20 21 21 21 20 20 19 20 20 20 20 20 20 21 21 22
25 25 26 26 25 25 25 25 25 25 25 26 25 25 25 25 25 25 25 25 24 24 24 23 21 21 21 22 21 21 21 22 25 23 21 19 20 20 19 19 18 18 18 18 19 18 18 20 20 20 20 20 20 20 20 20 20 20 20 20 20 20 20 20 20 21 21 22 22
25 25 26 26 25 25 26 25 25 25 25 25 23 23 23 23 24 24 23 23 22 23 24 24 23 22 22 21 21 21 21 21 21 21 19 18 19 19 19 18 17 16 17 17 17 17 17 17 19 20 20 21 19 19 19 20 20 20 20 20 20 20 20 20 20 21 21 22 22
25 25 25 25 25 25 25 25 25 24 24 23 22 22 22 23 23 23 22 21 22 23 24 25 23 22 21 20 20 20 20 21 20 19 18 18 19 18 17 17 16 16 16 16 16 17 16 16 18 19 20 21 21 19 19 19 20 20 19 19 19 20 20 21 21 21 21 21 21
26 25 25 24 24 24 24 24 24 23 23 22 22 22 22 23 23 22 21 21 21 22 23 24 22 21 20 19 18 18 18 18 18 18 18 18 18 17 16 15 15 15 15 15 16 16 16 17 18 19 19 20 20 20 19 18 18 18 18 18 19 20 20 20 21 21 21 21 20
27 26 26 25 25 25 24 24 24 23 23 22 22 22 23 24 23 21 21 21 22 22 22 22 21 20 19 18 18 18 17 17 16 16 16 16 16 15 15 15 15 15 15 15 15 15 15 16 18 18 18 19 19 18 17 16 16 16 16 18 19 20 20 20 20 20 20 21 20
26 26 25 26 26 26 25 25 24 24 23 23 22 23 24 25 23 21 21 22 22 21 20 21 20 19 18 18 18 18 17 17 16 16 15 16 16 15 14 14 14 14 14 14 14 15 16 16 16 16 16 17 17 16 16 15 15 15 15 18 18 18 18 18 19 19 19 20 19
25 25 25 25 26 25 25 25 25 25 24 24 23 23 23 24 22 21 21 21 19 19 19 20 20 19 18 18 18 18 17 17 16 16 15 15 15 15 14 13 13 13 13 13 14 15 16 16 16 15 15 16 16 16 15 14 14 14 15 17 17 17 16 17 17 18 18 19 19
24 25 25 25 25 25 25 25 24 24 24 23 21 21 21 21 21 21 20 18 18 18 19 20 19 19 18 18 18 18 18 16 16 15 15 14 14 13 13 13 13 12 12 12 13 15 15 15 15 14 14 15 15 15 15 14 14 14 14 15 16 16 15 15 15 16 17 19 19
23 24 24 24 25 25 24 24 23 23 22 21 20 19 19 20 21 20 19 17 18 18 18 19 19 19 18 17 17 17 16 16 15 15 15 15 14 13 13 13 13 13 13 13 14 15 15 15 14 14 14 14 15 15 15 14 14 14 14 14 14 14 14 13 14 15 17 19 19
22 22 23 24 23 23 22 22 22 21 21 20 19 18 18 18 20 20 19 18 18 17 18 18 19 19 19 17 16 16 16 15 15 15 14 15 14 13 13 13 13 13 13 14 14 14 14 14 14 14 14 13 14 14 14 14 14 14 14 14 14 13 13 13 14 15 16 17 18
21 21 22 22 22 21 21 21 21 21 20 20 19 19 17 16 19 20 20 18 18 18 18 17 17 18 19 18 17 16 16 15 15 15 15 15 14 14 14 14 14 14 14 14 15 15 14 14 14 14 14 14 13 14 14 14 14 14 14 14 14 14 14 14 15 15 16 16 17
20 20 21 21 21 20 20 20 20 20 20 20 19 19 18 17 18 20 20 19 18 18 18 17 16 17 18 20 19 18 16 16 16 15 15 15 15 15 15 15 15 15 15 15 15 15 15 14 14 14 14 14 14 14 14 14 14 14 14 14 14 14 15 15 16 16 16 17 17
19 19 20 20 20 20 20 20 20 20 20 19 19 19 19 19 19 20 21 20 19 18 17 16 16 17 18 19 19 18 17 16 16 16 15 15 15 15 15 15 16 16 16 15 15 15 15 15 14 14 14 14 14 14 14 15 15 15 15 15 15 15 16 17 17 17 17 18 18
18 18 19 19 19 20 20 20 20 19 19 19 19 19 20 20 19 19 20 20 19 18 17 17 17 17 17 17 17 18 18 17 16 16 16 16 16 16 16 16 16 16 16 16 15 15 15 15 15 14 14 14 14 15 15 16 16 16 16 16 16 16 17 18 18 18 19 19 20
18 18 18 18 19 19 20 20 20 19 18 18 18 18 19 19 18 18 18 18 19 19 18 17 17 17 17 16 16 17 19 18 16 16 16 16 16 16 16 16 16 16 16 16 15 15 15 15 15 15 15 15 15 16 16 17 17 17 17 17 18 18 18 19 19 19 20 20 20
18 18 18 18 19 19 19 20 19 18 18 18 18 18 18 18 17 17 17 17 18 19 18 17 17 17 16 16 16 17 17 18 17 17 16 16 16 16 16 16 16 16 16 16 16 15 15 15 15 15 16 16 17 17 18 18 18 18 18 19 19 19 20 20 20 20 20 20 20
18 18 18 19 19 19 19 19 18 18 18 18 17 17 17 17 17 17 17 18 19 18 18 17 17 17 17 17 17 17 17 19 18 17 17 17 17 17 17 17 16 16 16 16 16 15 15 16 16 16 17 18 19 19 19 19 19 20 20 20 20 21 21 21 21 21 21 21 21
18 19 19 19 19 19 19 19 19 18 18 17 17 17 17 17 16 16 17 18 18 18 18 18 18 18 17 17 17 17 17 18 18 17 17 17 17 17 17 17 16 16 16 16 16 16 16 17 18 18 19 19 20 20 20 20 21 21 21 21 21 21 21 21 21 21 21 21 21
18 19 19 20 20 20 20 19 19 18 18 17 17 17 17 16 16 16 17 17 17 17 17 17 18 18 18 18 18 17 17 17 17 17 17 16 16 16 16 16 16 16 16 16 17 18 19 20 20 20 20 20 20 20 21 21 21 21 21 21 21 21 21 21 21 21 21 21 21
19 19 20 20 19 19 19 19 18 18 17 17 17 17 17 16 16 16 16 16 16 16 16 16 17 18 18 18 17 17 17 17 17 17 17 16 16 16 16 16 16 16 17 18 22 24 24 23 22 21 21 21 21 21 21 21 21 21 21 21 21 21 21 21 21 21 21 21 21
20 20 20 19 19 18 18 18 18 17 17 17 17 17 16 16 16 16 16 16 16 16 16 16 16 17 18 18 18 17 17 17 17 17 17 17 17 17 17 17 16 17 19 22 26 27 27 26 25 24 22 21 21 21 21 21 21 22 22 22 22 21 21 21 21 21 21 21 21
20 20 19 19 18 18 17 17 17 17 17 17 17 17 16 16 16 16 16 16 16 16 16 17 17 19 20 19 18 17 17 17 17 17 17 17 17 17 17 17 16 18 21 24 26 28 28 29 28 27 25 23 22 22 22 22 22 22 22 22 21 21 21 21 21 21 21 21 21
20 19 19 19 18 17 16 17 17 17 17 17 16 16 16 16 16 16 16 16 16 16 17 17 18 21 22 20 18 17 17 18 18 18 17 17 17 17 17 17 16 17 21 25 27 28 28 29 29 29 27 25 24 23 22 22 22 22 22 21 21 21 21 21 21 21 21 21 21
19 19 19 18 17 16 16 16 16 16 16 16 16 16 16 16 16 16 16 16 16 17 18 18 19 20 20 19 18 18 17 17 18 18 17 17 17 16 16 17 16 18 21 25 27 28 28 29 29 29 28 26 25 24 23 22 22 22 21 21 21 21 21 21 21 21 21 21 21
19 19 18 17 16 16 15 15 15 15 16 16 16 16 16 16 16 16 16 16 17 18 19 20 20 20 19 19 18 18 18 18 17 18 18 17 16 16 16 17 17 20 23 27 27 27 28 28 28 29 29 28 27 25 24 22 22 21 21 21 21 21 21 21 21 21 21 21 21
18 18 17 16 16 15 15 15 15 15 16 16 16 15 15 15 16 16 17 18 18 20 21 21 20 20 19 18 18 18 18 18 18 18 17 16 16 16 16 18 17 20 23 27 27 27 27 27 28 28 28 29 27 25 23 22 22 21 21 21 21 21 21 21 21 21 21 21 20
18 17 16 16 15 15 15 15 15 15 15 15 15 15 15 16 16 18 19 20 20 21 22 22 20 19 18 19 19 18 18 18 18 17 16 15 16 17 18 17 16 19 22 26 26 26 27 27 27 28 28 28 27 25 23 22 21 21 21 21 21 21 21 21 21 21 21 20 20
17 16 16 15 15 15 15 15 15 15 15 15 15 15 15 16 19 20 21 21 21 21 21 21 19 19 18 18 18 18 18 17 17 16 17 17 16 16 16 16 16 18 22 25 26 26 27 27 27 27 28 28 27 25 22 21 21 21 21 21 21 21 21 21 21 21 21 20 20
16 16 15 15 15 15 15 15 15 15 15 15 15 15 16 17 20 21 21 21 21 21 20 19 19 18 18 17 17 17 16 16 16 16 17 17 17 17 16 16 15 18 22 25 26 26 26 27 27 27 28 28 27 25 22 21 21 21 21 21 21 21 21 21 21 21 21 20 20
15 14 14 14 15 15 14 14 14 15 15 15 15 16 17 19 20 20 20 21 21 21 20 19 19 18 18 17 17 16 16 16 16 15 15 16 16 16 16 15 14 18 23 25 25 26 26 27 27 27 28 28 26 24 22 21 21 21 21 21 21 21 21 21 21 21 21 21 21
14 14 14 14 14 14 14 14 14 15 15 15 15 16 18 20 20 20 21 22 22 21 20 19 19 18 17 17 16 16 16 15 14 13 13 14 15 15 15 15 15 19 24 25 25 26 26 26 27 27 27 27 25 23 22 21 21 21 21 21 21 21 21 21 21 21 21 21 21
14 13 13 13 13 14 14 14 15 15 15 15 16 17 19 21 21 21 21 22 21 20 19 18 18 17 16 16 15 15 16 14 14 13 13 14 14 14 14 14 15 19 23 25 25 25 25 26 26 27 27 26 24 23 22 21 21 21 21 21 21 21 21 21 21 21 21 21 21
14 14 13 13 14 14 15 15 15 15 15 16 17 19 20 20 21 21 21 21 20 19 18 17 17 16 16 16 15 15 15 15 14 13 13 14 13 13 13 14 14 17 22 25 25 25 25 25 26 26 26 24 23 22 21 21 21 21 21 21 21 21 21 21 21 21 21 21 21
14 14 14 14 14 15 15 15 15 15 15 16 18 20 20 20 20 20 21 21 19 18 17 16 16 16 16 16 16 15 15 14 14 14 13 13 12 12 13 14 15 17 20 24 25 25 25 25 26 26 25 23 22 22 21 21 21 21 21 20 20 20 21 21 21 21 21 21 23
14 15 15 15 14 15 15 15 15 15 16 18 19 20 20 20 20 20 20 20 19 17 16 16 16 16 16 17 16 15 14 13 14 14 14 12 12 14 16 16 15 16 19 23 24 25 25 25 26 26 26 25 23 22 21 21 21 20 20 20 20 20 20 21 21 21 21 22 25
15 15 15 15 15 15 15 15 15 16 18 19 19 19 19 20 20 20 20 19 17 16 16 16 16 16 16 17 16 15 13 13 13 13 13 13 14 17 19 16 14 15 17 21 24 25 25 25 26 27 26 25 23 22 21 21 21 20 20 20 20 20 20 20 20 21 21 23 27
15 15 15 15 15 15 15 15 16 17 19 19 19 19 20 21 20 19 18 16 16 16 16 16 15 15 16 17 16 15 13 12 13 12 12 14 14 16 17 15 13 14 16 19 23 25 25 26 26 27 26 25 23 22 21 21 20 20 20 20 20 20 20 20 21 21 23 25 28